Year,Month,Day,Hour,Minute,Value (Times are PST for temperature in C)
2018,05,02,00,00,8.60
2018,05,02,00,01,8.50
2018,05,02,00,02,8.50
2018,05,02,00,03,8.50
2018,05,02,00,04,8.40
2018,05,02,00,05,8.40
2018,05,02,00,06,8.40
2018,05,02,00,07,8.40
2018,05,02,00,08,8.30
2018,05,02,00,09,8.30
2018,05,02,00,10,8.30
2018,05,02,00,11,8.30
2018,05,02,00,12,8.30
2018,05,02,00,13,8.30
2018,05,02,00,14,8.30
2018,05,02,00,15,8.30
2018,05,02,00,16,8.20
2018,05,02,00,17,8.20
2018,05,02,00,18,8.20
2018,05,02,00,19,8.20
2018,05,02,00,20,8.20
2018,05,02,00,21,8.10
2018,05,02,00,22,8.10
2018,05,02,00,23,8.10
2018,05,02,00,24,8.10
2018,05,02,00,25,8.10
2018,05,02,00,26,8.10
2018,05,02,00,27,8.10
2018,05,02,00,28,8.10
2018,05,02,00,29,8.10
2018,05,02,00,30,8.10
2018,05,02,00,31,8.10
2018,05,02,00,32,8.10
2018,05,02,00,33,8.10
2018,05,02,00,34,8.10
2018,05,02,00,35,8.10
2018,05,02,00,36,8.10
2018,05,02,00,37,8.00
2018,05,02,00,38,8.00
2018,05,02,00,39,8.00
2018,05,02,00,40,8.00
2018,05,02,00,41,8.00
2018,05,02,00,42,8.00
2018,05,02,00,43,8.00
2018,05,02,00,44,8.00
2018,05,02,00,45,7.90
2018,05,02,00,46,7.90
2018,05,02,00,47,7.90
2018,05,02,00,48,7.90
2018,05,02,00,49,7.90
2018,05,02,00,50,7.80
2018,05,02,00,51,7.80
2018,05,02,00,52,7.80
2018,05,02,00,53,7.80
2018,05,02,00,54,7.80
2018,05,02,00,55,7.80
2018,05,02,00,56,7.70
2018,05,02,00,57,7.80
2018,05,02,00,58,7.70
2018,05,02,00,59,7.70
2018,05,02,01,00,7.70
2018,05,02,01,01,7.70
2018,05,02,01,02,7.70
2018,05,02,01,03,7.70
2018,05,02,01,04,7.70
2018,05,02,01,05,7.70
2018,05,02,01,06,7.70
2018,05,02,01,07,7.60
2018,05,02,01,08,7.60
2018,05,02,01,09,7.60
2018,05,02,01,10,7.60
2018,05,02,01,11,7.60
2018,05,02,01,12,7.60
2018,05,02,01,13,7.60
2018,05,02,01,14,7.60
2018,05,02,01,15,7.60
2018,05,02,01,16,7.60
2018,05,02,01,17,7.50
2018,05,02,01,18,7.50
2018,05,02,01,19,7.50
2018,05,02,01,20,7.50
2018,05,02,01,21,7.50
2018,05,02,01,22,7.40
2018,05,02,01,23,7.40
2018,05,02,01,24,7.40
2018,05,02,01,25,7.40
2018,05,02,01,26,7.40
2018,05,02,01,27,7.40
2018,05,02,01,28,7.40
2018,05,02,01,29,7.40
2018,05,02,01,30,7.40
2018,05,02,01,31,7.30
2018,05,02,01,32,7.30
2018,05,02,01,33,7.30
2018,05,02,01,34,7.30
2018,05,02,01,35,7.30
2018,05,02,01,36,7.30
2018,05,02,01,37,7.30
2018,05,02,01,38,7.30
2018,05,02,01,39,7.30
2018,05,02,01,40,7.30
2018,05,02,01,41,7.30
2018,05,02,01,42,7.30
2018,05,02,01,43,7.20
2018,05,02,01,44,7.20
2018,05,02,01,45,7.20
2018,05,02,01,46,7.20
2018,05,02,01,47,7.20
2018,05,02,01,48,7.20
2018,05,02,01,49,7.20
2018,05,02,01,50,7.20
2018,05,02,01,51,7.20
2018,05,02,01,52,7.20
2018,05,02,01,53,7.20
2018,05,02,01,54,7.10
2018,05,02,01,55,7.10
2018,05,02,01,56,7.10
2018,05,02,01,57,7.10
2018,05,02,01,58,7.00
2018,05,02,01,59,7.00
2018,05,02,02,00,7.00
2018,05,02,02,01,7.00
2018,05,02,02,02,7.00
2018,05,02,02,03,6.90
2018,05,02,02,04,6.90
2018,05,02,02,05,6.90
2018,05,02,02,06,6.90
2018,05,02,02,07,6.90
2018,05,02,02,08,6.90
2018,05,02,02,09,6.80
2018,05,02,02,10,6.80
2018,05,02,02,11,6.80
2018,05,02,02,12,6.80
2018,05,02,02,13,6.80
2018,05,02,02,14,6.80
2018,05,02,02,15,6.70
2018,05,02,02,16,6.70
2018,05,02,02,17,6.70
2018,05,02,02,18,6.70
2018,05,02,02,19,6.70
2018,05,02,02,20,6.70
2018,05,02,02,21,6.70
2018,05,02,02,22,6.60
2018,05,02,02,23,6.60
2018,05,02,02,24,6.60
2018,05,02,02,25,6.60
2018,05,02,02,26,6.60
2018,05,02,02,27,6.60
2018,05,02,02,28,6.60
2018,05,02,02,29,6.60
2018,05,02,02,30,6.60
2018,05,02,02,31,6.60
2018,05,02,02,32,6.60
2018,05,02,02,33,6.60
2018,05,02,02,34,6.60
2018,05,02,02,35,6.60
2018,05,02,02,36,6.60
2018,05,02,02,37,6.60
2018,05,02,02,38,6.60
2018,05,02,02,39,6.50
2018,05,02,02,40,6.60
2018,05,02,02,41,6.60
2018,05,02,02,42,6.60
2018,05,02,02,43,6.60
2018,05,02,02,44,6.60
2018,05,02,02,45,6.60
2018,05,02,02,46,6.60
2018,05,02,02,47,6.60
2018,05,02,02,48,6.60
2018,05,02,02,49,6.50
2018,05,02,02,50,6.50
2018,05,02,02,51,6.50
2018,05,02,02,52,6.50
2018,05,02,02,53,6.50
2018,05,02,02,54,6.40
2018,05,02,02,55,6.40
2018,05,02,02,56,6.40
2018,05,02,02,57,6.40
2018,05,02,02,58,6.40
2018,05,02,02,59,6.30
2018,05,02,03,00,6.30
2018,05,02,03,01,6.30
2018,05,02,03,02,6.30
2018,05,02,03,03,6.30
2018,05,02,03,04,6.30
2018,05,02,03,05,6.30
2018,05,02,03,06,6.30
2018,05,02,03,07,6.30
2018,05,02,03,08,6.30
2018,05,02,03,09,6.30
2018,05,02,03,10,6.30
2018,05,02,03,11,6.30
2018,05,02,03,12,6.30
2018,05,02,03,13,6.30
2018,05,02,03,14,6.30
2018,05,02,03,15,6.30
2018,05,02,03,16,6.20
2018,05,02,03,17,6.20
2018,05,02,03,18,6.20
2018,05,02,03,19,6.20
2018,05,02,03,20,6.20
2018,05,02,03,21,6.20
2018,05,02,03,22,6.20
2018,05,02,03,23,6.20
2018,05,02,03,24,6.20
2018,05,02,03,25,6.20
2018,05,02,03,26,6.20
2018,05,02,03,27,6.20
2018,05,02,03,28,6.20
2018,05,02,03,29,6.20
2018,05,02,03,30,6.20
2018,05,02,03,31,6.20
2018,05,02,03,32,6.20
2018,05,02,03,33,6.10
2018,05,02,03,34,6.10
2018,05,02,03,35,6.10
2018,05,02,03,36,6.10
2018,05,02,03,37,6.10
2018,05,02,03,38,6.10
2018,05,02,03,39,6.10
2018,05,02,03,40,6.10
2018,05,02,03,41,6.10
2018,05,02,03,42,6.00
2018,05,02,03,43,6.00
2018,05,02,03,44,6.00
2018,05,02,03,45,6.00
2018,05,02,03,46,6.00
2018,05,02,03,47,6.00
2018,05,02,03,48,6.00
2018,05,02,03,49,6.00
2018,05,02,03,50,6.00
2018,05,02,03,51,6.00
2018,05,02,03,52,6.00
2018,05,02,03,53,5.90
2018,05,02,03,54,5.90
2018,05,02,03,55,5.90
2018,05,02,03,56,5.90
2018,05,02,03,57,5.90
2018,05,02,03,58,5.90
2018,05,02,03,59,5.90
2018,05,02,04,00,5.90
2018,05,02,04,01,5.90
2018,05,02,04,02,5.90
2018,05,02,04,03,5.90
2018,05,02,04,04,5.90
2018,05,02,04,05,5.90
2018,05,02,04,06,5.90
2018,05,02,04,07,5.90
2018,05,02,04,08,6.00
2018,05,02,04,09,6.00
2018,05,02,04,10,6.00
2018,05,02,04,11,6.00
2018,05,02,04,12,6.00
2018,05,02,04,13,6.00
2018,05,02,04,14,6.00
2018,05,02,04,15,5.90
2018,05,02,04,16,5.90
2018,05,02,04,17,5.90
2018,05,02,04,18,5.90
2018,05,02,04,19,5.90
2018,05,02,04,20,5.90
2018,05,02,04,21,5.80
2018,05,02,04,22,5.80
2018,05,02,04,23,5.80
2018,05,02,04,24,5.80
2018,05,02,04,25,5.80
2018,05,02,04,26,5.80
2018,05,02,04,27,5.70
2018,05,02,04,28,5.80
2018,05,02,04,29,5.70
2018,05,02,04,30,5.70
2018,05,02,04,31,5.70
2018,05,02,04,32,5.70
2018,05,02,04,33,5.70
2018,05,02,04,34,5.70
2018,05,02,04,35,5.70
2018,05,02,04,36,5.70
2018,05,02,04,37,5.70
2018,05,02,04,38,5.70
2018,05,02,04,39,5.70
2018,05,02,04,40,5.70
2018,05,02,04,41,5.70
2018,05,02,04,42,5.60
2018,05,02,04,43,5.60
2018,05,02,04,44,5.60
2018,05,02,04,45,5.60
2018,05,02,04,46,5.60
2018,05,02,04,47,5.60
2018,05,02,04,48,5.50
2018,05,02,04,49,5.50
2018,05,02,04,50,5.50
2018,05,02,04,51,5.50
2018,05,02,04,52,5.50
2018,05,02,04,53,5.50
2018,05,02,04,54,5.60
2018,05,02,04,55,5.50
2018,05,02,04,56,5.50
2018,05,02,04,57,5.50
2018,05,02,04,58,5.40
2018,05,02,04,59,5.40
2018,05,02,05,00,5.40
2018,05,02,05,01,5.40
2018,05,02,05,02,5.40
2018,05,02,05,03,5.40
2018,05,02,05,04,5.40
2018,05,02,05,05,5.40
2018,05,02,05,06,5.40
2018,05,02,05,07,5.40
2018,05,02,05,08,5.40
2018,05,02,05,09,5.40
2018,05,02,05,10,5.40
2018,05,02,05,11,5.30
2018,05,02,05,12,5.30
2018,05,02,05,13,5.30
2018,05,02,05,14,5.30
2018,05,02,05,15,5.30
2018,05,02,05,16,5.30
2018,05,02,05,17,5.30
2018,05,02,05,18,5.30
2018,05,02,05,19,5.30
2018,05,02,05,20,5.30
2018,05,02,05,21,5.30
2018,05,02,05,22,5.30
2018,05,02,05,23,5.30
2018,05,02,05,24,5.30
2018,05,02,05,25,5.30
2018,05,02,05,26,5.30
2018,05,02,05,27,5.20
2018,05,02,05,28,5.20
2018,05,02,05,29,5.20
2018,05,02,05,30,5.20
2018,05,02,05,31,5.20
2018,05,02,05,32,5.20
2018,05,02,05,33,5.20
2018,05,02,05,34,5.30
2018,05,02,05,35,5.30
2018,05,02,05,36,5.30
2018,05,02,05,37,5.30
2018,05,02,05,38,5.30
2018,05,02,05,39,5.20
2018,05,02,05,40,5.20
2018,05,02,05,41,5.20
2018,05,02,05,42,5.20
2018,05,02,05,43,5.20
2018,05,02,05,44,5.20
2018,05,02,05,45,5.20
2018,05,02,05,46,5.20
2018,05,02,05,47,5.20
2018,05,02,05,48,5.30
2018,05,02,05,49,5.30
2018,05,02,05,50,5.30
2018,05,02,05,51,5.20
2018,05,02,05,52,5.20
2018,05,02,05,53,5.20
2018,05,02,05,54,5.20
2018,05,02,05,55,5.20
2018,05,02,05,56,5.20
2018,05,02,05,57,5.20
2018,05,02,05,58,5.20
2018,05,02,05,59,5.20
2018,05,02,06,00,5.20
2018,05,02,06,01,5.20
2018,05,02,06,02,5.20
2018,05,02,06,03,5.20
2018,05,02,06,04,5.20
2018,05,02,06,05,5.20
2018,05,02,06,06,5.20
2018,05,02,06,07,5.20
2018,05,02,06,08,5.20
2018,05,02,06,09,5.20
2018,05,02,06,10,5.20
2018,05,02,06,11,5.20
2018,05,02,06,12,5.30
2018,05,02,06,13,5.30
2018,05,02,06,14,5.30
2018,05,02,06,15,5.30
2018,05,02,06,16,5.30
2018,05,02,06,17,5.30
2018,05,02,06,18,5.20
2018,05,02,06,19,5.20
2018,05,02,06,20,5.20
2018,05,02,06,21,5.20
2018,05,02,06,22,5.20
2018,05,02,06,23,5.20
2018,05,02,06,24,5.30
2018,05,02,06,25,5.30
2018,05,02,06,26,5.30
2018,05,02,06,27,5.30
2018,05,02,06,28,5.30
2018,05,02,06,29,5.40
2018,05,02,06,30,5.30
2018,05,02,06,31,5.30
2018,05,02,06,32,5.30
2018,05,02,06,33,5.30
2018,05,02,06,34,5.30
2018,05,02,06,35,5.30
2018,05,02,06,36,5.30
2018,05,02,06,37,5.30
2018,05,02,06,38,5.30
2018,05,02,06,39,5.30
2018,05,02,06,40,5.30
2018,05,02,06,41,5.40
2018,05,02,06,42,5.40
2018,05,02,06,43,5.40
2018,05,02,06,44,5.40
2018,05,02,06,45,5.40
2018,05,02,06,46,5.50
2018,05,02,06,47,5.50
2018,05,02,06,48,5.50
2018,05,02,06,49,5.50
2018,05,02,06,50,5.50
2018,05,02,06,51,5.60
2018,05,02,06,52,5.60
2018,05,02,06,53,5.60
2018,05,02,06,54,5.60
2018,05,02,06,55,5.70
2018,05,02,06,56,5.70
2018,05,02,06,57,5.70
2018,05,02,06,58,5.80
2018,05,02,06,59,5.90
2018,05,02,07,00,6.00
2018,05,02,07,01,6.10
2018,05,02,07,02,6.20
2018,05,02,07,03,6.20
2018,05,02,07,04,6.30
2018,05,02,07,05,6.40
2018,05,02,07,06,6.40
2018,05,02,07,07,6.50
2018,05,02,07,08,6.50
2018,05,02,07,09,6.60
2018,05,02,07,10,6.60
2018,05,02,07,11,6.60
2018,05,02,07,12,6.60
2018,05,02,07,13,6.70
2018,05,02,07,14,6.70
2018,05,02,07,15,6.80
2018,05,02,07,16,6.80
2018,05,02,07,17,6.80
2018,05,02,07,18,6.90
2018,05,02,07,19,6.90
2018,05,02,07,20,6.90
2018,05,02,07,21,6.90
2018,05,02,07,22,7.10
2018,05,02,07,23,7.10
2018,05,02,07,24,7.20
2018,05,02,07,25,7.30
2018,05,02,07,26,7.40
2018,05,02,07,27,7.50
2018,05,02,07,28,7.60
2018,05,02,07,29,7.70
2018,05,02,07,30,7.70
2018,05,02,07,31,7.80
2018,05,02,07,32,7.90
2018,05,02,07,33,8.00
2018,05,02,07,34,8.00
2018,05,02,07,35,8.10
2018,05,02,07,36,8.10
2018,05,02,07,37,8.30
2018,05,02,07,38,8.40
2018,05,02,07,39,8.40
2018,05,02,07,40,8.50
2018,05,02,07,41,8.70
2018,05,02,07,42,8.80
2018,05,02,07,43,8.90
2018,05,02,07,44,9.00
2018,05,02,07,45,9.00
2018,05,02,07,46,9.10
2018,05,02,07,47,9.10
2018,05,02,07,48,9.20
2018,05,02,07,49,9.20
2018,05,02,07,50,9.30
2018,05,02,07,51,9.40
2018,05,02,07,52,9.50
2018,05,02,07,53,9.60
2018,05,02,07,54,9.60
2018,05,02,07,55,9.70
2018,05,02,07,56,9.70
2018,05,02,07,57,9.80
2018,05,02,07,58,9.90
2018,05,02,07,59,9.90
2018,05,02,08,00,9.90
2018,05,02,08,01,9.90
2018,05,02,08,02,9.90
2018,05,02,08,03,9.90
2018,05,02,08,04,9.90
2018,05,02,08,05,10.00
2018,05,02,08,06,10.10
2018,05,02,08,07,10.10
2018,05,02,08,08,10.10
2018,05,02,08,09,10.20
2018,05,02,08,10,10.30
2018,05,02,08,11,10.40
2018,05,02,08,12,10.50
2018,05,02,08,13,10.60
2018,05,02,08,14,10.70
2018,05,02,08,15,10.80
2018,05,02,08,16,10.80
2018,05,02,08,17,10.90
2018,05,02,08,18,11.00
2018,05,02,08,19,11.10
2018,05,02,08,20,11.10
2018,05,02,08,21,11.20
2018,05,02,08,22,11.30
2018,05,02,08,23,11.40
2018,05,02,08,24,11.60
2018,05,02,08,25,11.60
2018,05,02,08,26,11.80
2018,05,02,08,27,11.80
2018,05,02,08,28,11.90
2018,05,02,08,29,12.00
2018,05,02,08,30,12.00
2018,05,02,08,31,12.10
2018,05,02,08,32,12.10
2018,05,02,08,33,12.10
2018,05,02,08,34,12.20
2018,05,02,08,35,12.20
2018,05,02,08,36,12.20
2018,05,02,08,37,12.20
2018,05,02,08,38,12.30
2018,05,02,08,39,12.30
2018,05,02,08,40,12.30
2018,05,02,08,41,12.30
2018,05,02,08,42,12.40
2018,05,02,08,43,12.40
2018,05,02,08,44,12.50
2018,05,02,08,45,12.60
2018,05,02,08,46,12.60
2018,05,02,08,47,12.70
2018,05,02,08,48,12.80
2018,05,02,08,49,12.80
2018,05,02,08,50,12.90
2018,05,02,08,51,13.00
2018,05,02,08,52,13.00
2018,05,02,08,53,13.00
2018,05,02,08,54,13.10
2018,05,02,08,55,13.10
2018,05,02,08,56,13.10
2018,05,02,08,57,13.20
2018,05,02,08,58,13.30
2018,05,02,08,59,13.40
2018,05,02,09,00,13.40
2018,05,02,09,01,13.50
2018,05,02,09,02,13.50
2018,05,02,09,03,13.70
2018,05,02,09,04,13.70
2018,05,02,09,05,13.80
2018,05,02,09,06,13.80
2018,05,02,09,07,13.80
2018,05,02,09,08,13.80
2018,05,02,09,09,13.90
2018,05,02,09,10,13.80
2018,05,02,09,11,13.80
2018,05,02,09,12,13.80
2018,05,02,09,13,13.80
2018,05,02,09,14,13.80
2018,05,02,09,15,13.80
2018,05,02,09,16,13.90
2018,05,02,09,17,13.90
2018,05,02,09,18,13.90
2018,05,02,09,19,13.90
2018,05,02,09,20,13.90
2018,05,02,09,21,13.90
2018,05,02,09,22,14.00
2018,05,02,09,23,14.00
2018,05,02,09,24,13.90
2018,05,02,09,25,13.90
2018,05,02,09,26,13.90
2018,05,02,09,27,13.90
2018,05,02,09,28,13.90
2018,05,02,09,29,13.90
2018,05,02,09,30,13.90
2018,05,02,09,31,13.90
2018,05,02,09,32,13.90
2018,05,02,09,33,13.90
2018,05,02,09,34,13.90
2018,05,02,09,35,14.00
2018,05,02,09,36,14.00
2018,05,02,09,37,14.10
2018,05,02,09,38,14.10
2018,05,02,09,39,14.10
2018,05,02,09,40,14.20
2018,05,02,09,41,14.20
2018,05,02,09,42,14.20
2018,05,02,09,43,14.20
2018,05,02,09,44,14.20
2018,05,02,09,45,14.20
2018,05,02,09,46,14.20
2018,05,02,09,47,14.20
2018,05,02,09,48,14.30
2018,05,02,09,49,14.30
2018,05,02,09,50,14.30
2018,05,02,09,51,14.30
2018,05,02,09,52,14.30
2018,05,02,09,53,14.30
2018,05,02,09,54,14.30
2018,05,02,09,55,14.30
2018,05,02,09,56,14.30
2018,05,02,09,57,14.30
2018,05,02,09,58,14.40
2018,05,02,09,59,14.40
2018,05,02,10,00,14.40
2018,05,02,10,01,14.40
2018,05,02,10,02,14.40
2018,05,02,10,03,14.40
2018,05,02,10,04,14.40
2018,05,02,10,05,14.50
2018,05,02,10,06,14.50
2018,05,02,10,07,14.70
2018,05,02,10,08,14.70
2018,05,02,10,09,14.80
2018,05,02,10,10,14.80
2018,05,02,10,11,14.90
2018,05,02,10,12,14.90
2018,05,02,10,13,15.00
2018,05,02,10,14,15.00
2018,05,02,10,15,15.00
2018,05,02,10,16,15.10
2018,05,02,10,17,15.10
2018,05,02,10,18,15.10
2018,05,02,10,19,15.00
2018,05,02,10,20,15.00
2018,05,02,10,21,14.90
2018,05,02,10,22,14.90
2018,05,02,10,23,14.80
2018,05,02,10,24,14.80
2018,05,02,10,25,14.60
2018,05,02,10,26,14.60
2018,05,02,10,27,14.50
2018,05,02,10,28,14.30
2018,05,02,10,29,14.30
2018,05,02,10,30,14.30
2018,05,02,10,31,14.30
2018,05,02,10,32,14.30
2018,05,02,10,33,14.30
2018,05,02,10,34,14.40
2018,05,02,10,35,14.50
2018,05,02,10,36,14.60
2018,05,02,10,37,14.60
2018,05,02,10,38,14.60
2018,05,02,10,39,14.70
2018,05,02,10,40,14.70
2018,05,02,10,41,14.70
2018,05,02,10,42,14.70
2018,05,02,10,43,14.50
2018,05,02,10,44,14.40
2018,05,02,10,45,14.30
2018,05,02,10,46,14.20
2018,05,02,10,47,14.10
2018,05,02,10,48,14.00
2018,05,02,10,49,14.00
2018,05,02,10,50,13.90
2018,05,02,10,51,13.90
2018,05,02,10,52,13.90
2018,05,02,10,53,13.90
2018,05,02,10,54,14.00
2018,05,02,10,55,14.00
2018,05,02,10,56,14.10
2018,05,02,10,57,14.20
2018,05,02,10,58,14.20
2018,05,02,10,59,14.30
2018,05,02,11,00,14.30
2018,05,02,11,01,14.30
2018,05,02,11,02,14.20
2018,05,02,11,03,14.20
2018,05,02,11,04,14.20
2018,05,02,11,05,14.20
2018,05,02,11,06,14.20
2018,05,02,11,07,14.20
2018,05,02,11,08,14.10
2018,05,02,11,09,14.10
2018,05,02,11,10,14.00
2018,05,02,11,11,14.00
2018,05,02,11,12,14.00
2018,05,02,11,13,14.00
2018,05,02,11,14,13.90
2018,05,02,11,15,13.80
2018,05,02,11,16,13.80
2018,05,02,11,17,13.80
2018,05,02,11,18,13.80
2018,05,02,11,19,13.80
2018,05,02,11,20,13.80
2018,05,02,11,21,13.80
2018,05,02,11,22,13.80
2018,05,02,11,23,13.80
2018,05,02,11,24,13.80
2018,05,02,11,25,13.80
2018,05,02,11,26,13.80
2018,05,02,11,27,13.90
2018,05,02,11,28,13.90
2018,05,02,11,29,14.00
2018,05,02,11,30,14.10
2018,05,02,11,31,14.10
2018,05,02,11,32,14.10
2018,05,02,11,33,14.20
2018,05,02,11,34,14.20
2018,05,02,11,35,14.20
2018,05,02,11,36,14.30
2018,05,02,11,37,14.30
2018,05,02,11,38,14.30
2018,05,02,11,39,14.30
2018,05,02,11,40,14.30
2018,05,02,11,41,14.40
2018,05,02,11,42,14.60
2018,05,02,11,43,14.60
2018,05,02,11,44,14.70
2018,05,02,11,45,14.60
2018,05,02,11,46,14.60
2018,05,02,11,47,14.60
2018,05,02,11,48,14.50
2018,05,02,11,49,14.40
2018,05,02,11,50,14.40
2018,05,02,11,51,14.50
2018,05,02,11,52,14.50
2018,05,02,11,53,14.50
2018,05,02,11,54,14.40
2018,05,02,11,55,14.40
2018,05,02,11,56,14.40
2018,05,02,11,57,14.30
2018,05,02,11,58,14.30
2018,05,02,11,59,14.40
2018,05,02,12,00,14.50
2018,05,02,12,01,14.50
2018,05,02,12,02,14.50
2018,05,02,12,03,14.50
2018,05,02,12,04,14.40
2018,05,02,12,05,14.40
2018,05,02,12,06,14.20
2018,05,02,12,07,14.20
2018,05,02,12,08,14.20
2018,05,02,12,09,14.20
2018,05,02,12,10,14.30
2018,05,02,12,11,14.30
2018,05,02,12,12,14.20
2018,05,02,12,13,14.20
2018,05,02,12,14,14.20
2018,05,02,12,15,14.20
2018,05,02,12,16,14.20
2018,05,02,12,17,14.20
2018,05,02,12,18,14.30
2018,05,02,12,19,14.40
2018,05,02,12,20,14.50
2018,05,02,12,21,14.50
2018,05,02,12,22,14.70
2018,05,02,12,23,14.70
2018,05,02,12,24,14.70
2018,05,02,12,25,14.60
2018,05,02,12,26,14.50
2018,05,02,12,27,14.50
2018,05,02,12,28,14.50
2018,05,02,12,29,14.60
2018,05,02,12,30,14.70
2018,05,02,12,31,14.80
2018,05,02,12,32,14.80
2018,05,02,12,33,14.70
2018,05,02,12,34,14.70
2018,05,02,12,35,14.70
2018,05,02,12,36,14.70
2018,05,02,12,37,14.80
2018,05,02,12,38,14.80
2018,05,02,12,39,14.90
2018,05,02,12,40,14.90
2018,05,02,12,41,14.80
2018,05,02,12,42,14.80
2018,05,02,12,43,14.80
2018,05,02,12,44,14.70
2018,05,02,12,45,14.60
2018,05,02,12,46,14.40
2018,05,02,12,47,14.40
2018,05,02,12,48,14.40
2018,05,02,12,49,14.30
2018,05,02,12,50,14.30
2018,05,02,12,51,14.40
2018,05,02,12,52,14.40
2018,05,02,12,53,14.40
2018,05,02,12,54,14.40
2018,05,02,12,55,14.30
2018,05,02,12,56,14.20
2018,05,02,12,57,14.20
2018,05,02,12,58,14.30
2018,05,02,12,59,14.30
2018,05,02,13,00,14.50
2018,05,02,13,01,14.60
2018,05,02,13,02,14.70
2018,05,02,13,03,14.60
2018,05,02,13,04,14.60
2018,05,02,13,05,14.60
2018,05,02,13,06,14.60
2018,05,02,13,07,14.70
2018,05,02,13,08,14.70
2018,05,02,13,09,14.70
2018,05,02,13,10,14.80
2018,05,02,13,11,14.80
2018,05,02,13,12,14.90
2018,05,02,13,13,14.90
2018,05,02,13,14,14.90
2018,05,02,13,15,14.90
2018,05,02,13,16,14.90
2018,05,02,13,17,14.80
2018,05,02,13,18,14.80
2018,05,02,13,19,14.90
2018,05,02,13,20,14.90
2018,05,02,13,21,15.00
2018,05,02,13,22,15.00
2018,05,02,13,23,15.10
2018,05,02,13,24,15.10
2018,05,02,13,25,15.20
2018,05,02,13,26,15.10
2018,05,02,13,27,15.10
2018,05,02,13,28,15.10
2018,05,02,13,29,15.00
2018,05,02,13,30,15.00
2018,05,02,13,31,15.00
2018,05,02,13,32,15.00
2018,05,02,13,33,15.00
2018,05,02,13,34,14.90
2018,05,02,13,35,14.90
2018,05,02,13,36,15.00
2018,05,02,13,37,15.00
2018,05,02,13,38,15.10
2018,05,02,13,39,15.10
2018,05,02,13,40,15.20
2018,05,02,13,41,15.20
2018,05,02,13,42,15.20
2018,05,02,13,43,15.20
2018,05,02,13,44,15.20
2018,05,02,13,45,15.20
2018,05,02,13,46,15.20
2018,05,02,13,47,15.30
2018,05,02,13,48,15.30
2018,05,02,13,49,15.30
2018,05,02,13,50,15.40
2018,05,02,13,51,15.40
2018,05,02,13,52,15.40
2018,05,02,13,53,15.50
2018,05,02,13,54,15.50
2018,05,02,13,55,15.60
2018,05,02,13,56,15.60
2018,05,02,13,57,15.60
2018,05,02,13,58,15.50
2018,05,02,13,59,15.50
2018,05,02,14,00,15.40
2018,05,02,14,01,15.40
2018,05,02,14,02,15.40
2018,05,02,14,03,15.40
2018,05,02,14,04,15.50
2018,05,02,14,05,15.50
2018,05,02,14,06,15.60
2018,05,02,14,07,15.60
2018,05,02,14,08,15.60
2018,05,02,14,09,15.60
2018,05,02,14,10,15.60
2018,05,02,14,11,15.70
2018,05,02,14,12,15.80
2018,05,02,14,13,15.90
2018,05,02,14,14,15.90
2018,05,02,14,15,15.90
2018,05,02,14,16,15.90
2018,05,02,14,17,15.90
2018,05,02,14,18,15.90
2018,05,02,14,19,15.90
2018,05,02,14,20,15.90
2018,05,02,14,21,15.90
2018,05,02,14,22,15.90
2018,05,02,14,23,15.90
2018,05,02,14,24,15.90
2018,05,02,14,25,15.90
2018,05,02,14,26,15.90
2018,05,02,14,27,15.90
2018,05,02,14,28,15.90
2018,05,02,14,29,15.90
2018,05,02,14,30,15.90
2018,05,02,14,31,15.90
2018,05,02,14,32,15.90
2018,05,02,14,33,15.80
2018,05,02,14,34,15.70
2018,05,02,14,35,15.60
2018,05,02,14,36,15.60
2018,05,02,14,37,15.60
2018,05,02,14,38,15.60
2018,05,02,14,39,15.60
2018,05,02,14,40,15.50
2018,05,02,14,41,15.40
2018,05,02,14,42,15.40
2018,05,02,14,43,15.40
2018,05,02,14,44,15.40
2018,05,02,14,45,15.40
2018,05,02,14,46,15.40
2018,05,02,14,47,15.40
2018,05,02,14,48,15.30
2018,05,02,14,49,15.30
2018,05,02,14,50,15.30
2018,05,02,14,51,15.30
2018,05,02,14,52,15.40
2018,05,02,14,53,15.50
2018,05,02,14,54,15.60
2018,05,02,14,55,15.60
2018,05,02,14,56,15.60
2018,05,02,14,57,15.50
2018,05,02,14,58,15.50
2018,05,02,14,59,15.40
2018,05,02,15,00,15.40
2018,05,02,15,01,15.40
2018,05,02,15,02,15.30
2018,05,02,15,03,15.30
2018,05,02,15,04,15.30
2018,05,02,15,05,15.40
2018,05,02,15,06,15.40
2018,05,02,15,07,15.40
2018,05,02,15,08,15.50
2018,05,02,15,09,15.50
2018,05,02,15,10,15.50
2018,05,02,15,11,15.60
2018,05,02,15,12,15.60
2018,05,02,15,13,15.60
2018,05,02,15,14,15.70
2018,05,02,15,15,15.70
2018,05,02,15,16,15.70
2018,05,02,15,17,15.80
2018,05,02,15,18,15.80
2018,05,02,15,19,15.90
2018,05,02,15,20,15.90
2018,05,02,15,21,15.90
2018,05,02,15,22,15.90
2018,05,02,15,23,15.90
2018,05,02,15,24,15.90
2018,05,02,15,25,15.90
2018,05,02,15,26,16.00
2018,05,02,15,27,16.00
2018,05,02,15,28,16.10
2018,05,02,15,29,16.10
2018,05,02,15,30,16.10
2018,05,02,15,31,16.10
2018,05,02,15,32,16.00
2018,05,02,15,33,15.90
2018,05,02,15,34,15.80
2018,05,02,15,35,15.80
2018,05,02,15,36,15.70
2018,05,02,15,37,15.60
2018,05,02,15,38,15.60
2018,05,02,15,39,15.60
2018,05,02,15,40,15.50
2018,05,02,15,41,15.50
2018,05,02,15,42,15.60
2018,05,02,15,43,15.60
2018,05,02,15,44,15.60
2018,05,02,15,45,15.60
2018,05,02,15,46,15.60
2018,05,02,15,47,15.60
2018,05,02,15,48,15.60
2018,05,02,15,49,15.70
2018,05,02,15,50,15.60
2018,05,02,15,51,15.60
2018,05,02,15,52,15.60
2018,05,02,15,53,15.50
2018,05,02,15,54,15.50
2018,05,02,15,55,15.50
2018,05,02,15,56,15.40
2018,05,02,15,57,15.30
2018,05,02,15,58,15.40
2018,05,02,15,59,15.40
2018,05,02,16,00,15.40
2018,05,02,16,01,15.40
2018,05,02,16,02,15.40
2018,05,02,16,03,15.40
2018,05,02,16,04,15.50
2018,05,02,16,05,15.50
2018,05,02,16,06,15.50
2018,05,02,16,07,15.50
2018,05,02,16,08,15.50
2018,05,02,16,09,15.50
2018,05,02,16,10,15.60
2018,05,02,16,11,15.60
2018,05,02,16,12,15.60
2018,05,02,16,13,15.60
2018,05,02,16,14,15.50
2018,05,02,16,15,15.50
2018,05,02,16,16,15.50
2018,05,02,16,17,15.50
2018,05,02,16,18,15.60
2018,05,02,16,19,15.60
2018,05,02,16,20,15.60
2018,05,02,16,21,15.60
2018,05,02,16,22,15.50
2018,05,02,16,23,15.50
2018,05,02,16,24,15.60
2018,05,02,16,25,15.60
2018,05,02,16,26,15.70
2018,05,02,16,27,15.70
2018,05,02,16,28,15.70
2018,05,02,16,29,15.70
2018,05,02,16,30,15.80
2018,05,02,16,31,15.80
2018,05,02,16,32,15.80
2018,05,02,16,33,15.90
2018,05,02,16,34,15.90
2018,05,02,16,35,15.80
2018,05,02,16,36,15.80
2018,05,02,16,37,15.70
2018,05,02,16,38,15.70
2018,05,02,16,39,15.70
2018,05,02,16,40,15.70
2018,05,02,16,41,15.80
2018,05,02,16,42,15.90
2018,05,02,16,43,15.90
2018,05,02,16,44,16.00
2018,05,02,16,45,16.10
2018,05,02,16,46,16.10
2018,05,02,16,47,16.10
2018,05,02,16,48,16.10
2018,05,02,16,49,16.10
2018,05,02,16,50,16.10
2018,05,02,16,51,16.10
2018,05,02,16,52,16.30
2018,05,02,16,53,16.30
2018,05,02,16,54,16.30
2018,05,02,16,55,16.40
2018,05,02,16,56,16.40
2018,05,02,16,57,16.40
2018,05,02,16,58,16.50
2018,05,02,16,59,16.50
2018,05,02,17,00,16.50
2018,05,02,17,01,16.60
2018,05,02,17,02,16.60
2018,05,02,17,03,16.70
2018,05,02,17,04,16.70
2018,05,02,17,05,16.70
2018,05,02,17,06,16.80
2018,05,02,17,07,16.80
2018,05,02,17,08,16.80
2018,05,02,17,09,16.80
2018,05,02,17,10,16.80
2018,05,02,17,11,16.70
2018,05,02,17,12,16.60
2018,05,02,17,13,16.50
2018,05,02,17,14,16.50
2018,05,02,17,15,16.50
2018,05,02,17,16,16.40
2018,05,02,17,17,16.40
2018,05,02,17,18,16.40
2018,05,02,17,19,16.40
2018,05,02,17,20,16.30
2018,05,02,17,21,16.30
2018,05,02,17,22,16.30
2018,05,02,17,23,16.30
2018,05,02,17,24,16.30
2018,05,02,17,25,16.30
2018,05,02,17,26,16.30
2018,05,02,17,27,16.30
2018,05,02,17,28,16.30
2018,05,02,17,29,16.30
2018,05,02,17,30,16.30
2018,05,02,17,31,16.30
2018,05,02,17,32,16.30
2018,05,02,17,33,16.30
2018,05,02,17,34,16.30
2018,05,02,17,35,16.30
2018,05,02,17,36,16.30
2018,05,02,17,37,16.30
2018,05,02,17,38,16.30
2018,05,02,17,39,16.30
2018,05,02,17,40,16.30